星链-5102 (STARLINK-5102 )

导读 | 豆包AI

STARLINK-5102是美国太空探索技术公司(SpaceX)星链互联网卫星星座中的一员,于2023年2月17日发射升空,属于星链项目第二批组网卫星。该卫星主要用于为全球提供低延迟、高速率的卫星互联网服务,部署于近地轨道,是SpaceX构建全球卫星互联网星座的重要组成部分,目前已在轨道正常运行,服务全球各类用户。

Basic Information
目录编号:
55645
目录名称:
STARLINK-5102
国际标识:
2023-021T
轨道中心:
EARTH
卫星名称:
星链-5102
卫星全名:
星链-5102 (STARLINK-5102 )
卫星状态:
已陨落 最后检测时间 2024-08-21
发射日期:
2023-02-17 UTC
国别 :
美国 (US)
星等 :
--
Orbit Information
数据来源 国际轨道数据
星历时间: 2024-08-21T22:07:08+0800
轨道信息已过期642天
半长轴: 6560.598km
偏心率: 0.0010851
轨道倾角: 69.987°
近地点辐角 243.375°
升交点赤经 157.813°
平近点角 275.954°
近地点: 175.344km
远地点: 189.582km
周期: 88.140分钟
每日圈数: 16.337577
Detailed Information
固有亮度:
5
最大亮度:
2.5
卫星平台:
Starlink v1.5
覆盖范围:
全球
运营商:
太空探索技术公司
运营商所在国:
美国
制造商(研发单位):
太空探索技术公司
制造商所在国:
美国
使用方式:
暂无
Satellite Introduction
星链(Starlink)计划是由太空探索技术公司(SpaceX)提出的一个巨型低轨卫星互联网星座项目,计划在2019年至2024年间在太空搭建由约1.2万颗卫星组成的“星链”网络,其中1584颗将部署在地球上空550千米处的近地轨道,并从2020年开始工作。该卫星仍在工作。